{"data":{"norad_id":62219,"intl_designator":"2024-231B","name":"STARLINK-11490 [DTC]","alt_names":[],"object_type":"PAYLOAD","status":"ACTIVE","operator":null,"country":"US","launch_date":"2024-12-05","launch_site_code":"AFWTR","launch_vehicle":null,"mission":null,"orbit_class":"UNKNOWN","rcs_meters":null,"size_class":null,"mass_kg":null,"dimensions":null,"purposes":["comms"],"wikipedia_slug":null,"has_3d_model":false,"image_url":null,"decayed_at":null,"tle_current":{"epoch":"2026-05-25T02:41:54.104928Z","epoch_age_seconds":59268,"freshness":"FRESH","line1":"1 62219U 24231B   26145.11243177  .00195570  00000+0  15794-2 0  9990","line2":"2 62219  53.1570  84.5987 0001097  93.7591 266.3552 15.69740131 85419","mean_motion":15.69740131,"eccentricity":0.0001097,"inclination_deg":53.157,"raan_deg":84.5987,"arg_perigee_deg":93.7591,"mean_anomaly_deg":266.3552,"bstar":0.0015794,"rev_number":8541,"period_min":91.734929340352,"perigee_km":358.90139421566,"apogee_km":360.37966260539,"semimajor_km":6737.7775284105,"source":"CELESTRAK","updated_at":"2026-05-25T13:38:19.613138Z"}}}